Date String (YYYY-MM-DD hh:mm:ss) UTC,Instrument flags,Ambient pressure (hPa),Sample flow (lpm),Bypass flow (lpm),Sample temperature (°C),Ambient temperature (°C),ASC tube jacket temperature (°C),LED temperature (°C),Box temperature (°C),Sample RH (%),Span deviation,Mass concentration (μg/m³),Mass concentration (μg/m³),Mass concentration (μg/m³)
DateTimeUTC,F1_M11,P_M11,Q1_M11,Q2_M11,T1_M11,T2_M11,T3_M11,T4_M11,T5_M11,U1_M11,ZSPAN_M11,X0_M11,X2_M11,X1_M11
2022-02-04 02:00:00,,0829.6,5.00,0.00,21.4,20.6,00.0,30.7,22.7,05.9,0001.5,0013.83,0008.49,0007.97
2022-02-04 02:01:00,,0829.7,5.00,0.00,21.4,21.3,00.0,30.7,23.0,05.9,0001.4,0014.23,0008.97,0008.42
2022-02-04 02:02:00,,0829.7,4.99,0.00,21.6,22.1,00.0,30.8,23.4,05.9,0000.9,0014.40,0009.30,0008.75
2022-02-04 02:03:00,,0829.6,5.02,0.00,21.8,22.9,00.0,30.8,23.7,05.9,0000.6,0014.33,0009.56,0009.03
2022-02-04 02:04:00,,0829.7,5.00,0.00,21.9,22.9,00.0,30.8,23.8,05.8,0000.7,0014.80,0009.77,0009.23
2022-02-04 02:05:00,,0829.7,4.99,0.00,21.9,22.5,00.0,30.8,23.7,05.9,0000.2,0015.19,0009.95,0009.44
2022-02-04 02:06:00,,0829.7,5.00,0.00,21.9,22.2,00.0,30.8,23.6,05.9,0000.3,0015.43,0010.21,0009.69
2022-02-04 02:07:00,,0829.7,5.00,0.00,21.8,21.9,00.0,30.8,23.5,05.9,0000.5,0015.15,0010.17,0009.67
2022-02-04 02:08:00,,0829.7,5.00,0.00,21.8,21.6,00.0,30.8,23.4,06.0,0000.3,0014.73,0009.86,0009.34
2022-02-04 02:09:00,,0829.8,4.99,0.00,21.7,21.3,00.0,30.8,23.3,06.0,0000.6,0014.63,0009.79,0009.26
2022-02-04 02:10:00,,0829.8,5.00,0.00,21.6,21.0,00.0,30.8,23.1,06.0,0001.2,0014.99,0009.51,0009.01
2022-02-04 02:11:00,,0829.8,5.01,0.00,21.6,20.8,00.0,30.8,23.0,06.0,0001.9,0014.24,0009.10,0008.62
2022-02-04 02:12:00,,0829.8,5.01,0.00,21.5,20.7,00.0,30.7,23.0,06.0,0002.0,0013.85,0008.81,0008.34
2022-02-04 02:13:00,,0829.8,5.00,0.00,21.5,21.2,00.0,30.7,23.1,06.0,0002.2,0013.73,0008.73,0008.27
2022-02-04 02:14:00,,0829.8,4.99,0.00,21.7,22.0,00.0,30.8,23.4,05.9,0002.7,0013.64,0008.85,0008.39
2022-02-04 02:15:00,,0829.8,5.00,0.00,21.8,22.6,00.0,30.8,23.7,05.9,0002.4,0013.76,0009.12,0008.64
2022-02-04 02:16:00,,0829.8,5.01,0.00,21.9,22.4,00.0,30.8,23.7,05.8,0002.5,0013.77,0009.31,0008.80
2022-02-04 02:17:00,,0829.8,5.00,0.00,21.9,22.0,00.0,30.8,23.6,05.9,0002.2,0013.99,0009.46,0008.93
2022-02-04 02:18:00,,0829.8,5.00,0.00,21.8,21.7,00.0,30.8,23.4,05.9,0002.0,0014.21,0009.66,0009.12
2022-02-04 02:19:00,,0829.8,5.00,0.00,21.7,21.4,00.0,30.8,23.3,05.9,0001.8,0014.52,0009.93,0009.39
2022-02-04 02:20:00,,0829.8,5.00,0.00,21.7,21.2,00.0,30.8,23.2,05.9,0001.3,0014.67,0010.17,0009.63
2022-02-04 02:21:00,,0829.8,5.01,0.00,21.7,21.1,00.0,30.8,23.2,05.9,0001.0,0014.02,0010.38,0009.85
2022-02-04 02:22:00,,0829.8,5.01,0.00,21.6,21.1,00.0,30.8,23.2,05.9,0000.7,0014.89,0010.54,0010.02
2022-02-04 02:23:00,,0829.8,5.00,0.00,21.6,21.0,00.0,30.7,23.3,05.8,0000.7,0014.97,0010.62,0010.11
2022-02-04 02:24:00,,0829.8,5.00,0.00,21.7,21.1,00.0,30.7,23.3,05.9,0000.9,0015.15,0010.81,0010.30
2022-02-04 02:25:00,,0829.9,5.00,0.00,21.7,21.7,00.0,30.8,23.4,06.0,0000.8,0015.21,0010.89,0010.40
2022-02-04 02:26:00,,0829.9,5.00,0.00,21.9,22.6,00.0,30.8,23.7,06.0,0000.9,0015.33,0010.99,0010.52
2022-02-04 02:27:00,,0829.9,5.00,0.00,22.0,22.9,00.0,30.8,23.9,06.1,0000.9,0016.56,0011.51,0011.04
2022-02-04 02:28:00,,0829.9,5.00,0.00,22.0,22.6,00.0,30.9,23.9,06.1,0001.0,0017.63,0012.24,0011.72
2022-02-04 02:29:00,,0829.9,5.01,0.00,22.0,22.2,00.0,30.9,23.7,06.2,0000.7,0018.57,0013.00,0012.43
2022-02-04 02:30:00,,0829.9,5.00,0.00,21.9,21.8,00.0,30.9,23.5,06.3,0001.2,0019.43,0013.66,0013.09
2022-02-04 02:31:00,,0829.9,5.00,0.00,21.8,21.5,00.0,30.9,23.4,06.3,0001.3,0020.42,0014.34,0013.73
2022-02-04 02:32:00,,0829.9,5.00,0.00,21.7,21.2,00.0,30.8,23.2,06.4,0001.6,0021.37,0015.05,0014.35
2022-02-04 02:33:00,,0830.0,4.99,0.00,21.7,21.0,00.0,30.8,23.1,06.4,0001.7,0021.57,0015.75,0015.00
2022-02-04 02:34:00,,0830.0,5.00,0.00,21.6,20.8,00.0,30.8,23.0,06.4,0001.8,0022.36,0016.38,0015.63
2022-02-04 02:35:00,,0830.0,5.01,0.00,21.5,20.9,00.0,30.8,23.1,06.4,0001.5,0023.12,0016.88,0016.08
2022-02-04 02:36:00,,0830.0,4.98,0.00,21.7,21.7,00.0,30.8,23.3,06.4,0001.5,0024.39,0017.44,0016.56
2022-02-04 02:37:00,,0830.0,5.02,0.00,21.8,22.6,00.0,30.8,23.7,06.3,0001.3,0025.41,0017.97,0017.03
2022-02-04 02:38:00,,0830.0,5.00,0.00,21.9,22.7,00.0,30.8,23.8,06.3,0001.3,0025.11,0018.09,0017.15
2022-02-04 02:39:00,,0830.0,4.98,0.00,21.9,22.4,00.0,30.8,23.7,06.3,0001.1,0024.79,0018.00,0017.11
2022-02-04 02:40:00,,0830.0,5.00,0.00,21.9,22.0,00.0,30.9,23.5,06.3,0001.2,0025.31,0017.90,0017.02
2022-02-04 02:41:00,,0830.1,5.01,0.00,21.8,21.6,00.0,30.8,23.4,06.3,0001.0,0025.28,0017.83,0016.95
2022-02-04 02:42:00,,0830.1,5.00,0.00,21.7,21.3,00.0,30.8,23.2,06.4,0001.3,0025.08,0017.80,0016.93
2022-02-04 02:43:00,,0830.1,4.99,0.00,21.6,21.1,00.0,30.8,23.1,06.4,0001.1,0024.94,0017.76,0016.93
2022-02-04 02:44:00,,0830.1,4.99,0.00,21.6,20.9,00.0,30.8,23.0,06.4,0001.0,0025.12,0017.78,0016.92
2022-02-04 02:45:00,,0830.1,5.02,0.00,21.5,20.9,00.0,30.7,23.1,06.5,0001.3,0025.28,0017.81,0016.95
2022-02-04 02:46:00,,0830.2,4.98,0.00,21.6,21.7,00.0,30.8,23.3,06.5,0001.6,0025.22,0017.76,0016.89
2022-02-04 02:47:00,,0830.1,5.02,0.00,21.8,22.5,00.0,30.8,23.6,06.4,0001.7,0024.36,0017.61,0016.80
2022-02-04 02:48:00,,0830.1,5.00,0.00,21.9,22.8,00.0,30.8,23.8,06.3,0001.7,0024.06,0017.59,0016.76
2022-02-04 02:49:00,,0830.2,4.99,0.00,22.0,22.5,00.0,30.8,23.8,06.3,0001.9,0024.17,0017.70,0016.83
2022-02-04 02:50:00,,0830.2,5.01,0.00,22.0,22.2,00.0,30.9,23.8,06.3,0001.9,0024.13,0017.66,0016.81
2022-02-04 02:51:00,,0830.2,5.00,0.00,21.9,22.0,00.0,30.9,23.6,06.2,0001.9,0023.59,0017.36,0016.54
2022-02-04 02:52:00,,0830.2,5.00,0.00,21.9,21.7,00.0,30.9,23.5,06.2,0002.1,0023.02,0017.03,0016.21
2022-02-04 02:53:00,,0830.2,5.00,0.00,21.8,21.4,00.0,30.8,23.3,06.2,0001.9,0022.49,0016.57,0015.78
2022-02-04 02:54:00,,0830.2,5.01,0.00,21.7,21.1,00.0,30.8,23.2,06.3,0002.1,0022.18,0016.29,0015.51
2022-02-04 02:55:00,,0830.2,4.99,0.00,21.6,20.9,00.0,30.8,23.1,06.3,0001.9,0022.06,0015.96,0015.20
2022-02-04 02:56:00,,0830.2,5.00,0.00,21.5,20.7,00.0,30.8,23.0,06.3,0001.9,0021.59,0015.39,0014.68
2022-02-04 02:57:00,,0830.3,5.00,0.00,21.6,21.3,00.0,30.8,23.2,06.3,0002.0,0021.00,0015.02,0014.34
2022-02-04 02:58:00,,0830.3,5.01,0.00,21.7,22.1,00.0,30.8,23.5,06.3,0002.0,0020.52,0014.54,0013.85
2022-02-04 02:59:00,,0830.3,5.00,0.00,21.9,22.7,00.0,30.9,23.8,06.2,0002.2,0019.65,0013.83,0013.15
